RADUGA 1 [-] 1 08513U 75123A 21100.60126616 -.00000147 00000-0 00000-0 0 9990 2 08513 7.5984 294.4770 0005924 192.8604 5.9621 1.00296467175826 RADUGA 2 [-] 1 09416U 76092A 21100.60257470 -.00000208 00000-0 00000-0 0 9990 2 09416 8.2517 296.3552 0026997 348.6298 215.9481 1.00258739110355 RADUGA 3 [-] 1 10159U 77071A 21100.73626734 .00000124 00000-0 00000+0 0 9996 2 10159 8.8547 298.7774 0007105 218.8748 341.6590 1.00286049158063 RADUGA 4 [-] 1 10987U 78073A 21101.03799708 -.00000373 00000-0 00000+0 0 9991 2 10987 9.4583 301.9907 0009575 359.1689 20.2786 1.00300822100600 RADUGA 5 [-] 1 11343U 79035A 21100.59925973 -.00000049 00000-0 00000-0 0 9993 2 11343 9.8981 304.5469 0005888 132.7047 45.3803 1.00254036110368 RADUGA 6 [-] 1 11708U 80016A 21100.74946816 -.00000352 00000-0 00000-0 0 9992 2 11708 10.2319 307.3652 0001732 123.2811 142.3351 1.00240617103174 RADUGA 7 [-] 1 12003U 80081A 21101.11015514 .00000091 00000-0 00000+0 0 9995 2 12003 10.3987 309.1850 0007621 259.7052 225.7376 1.00320762104433 RADUGA 8 [-] 1 12351U 81027A 21100.63550990 -.00000109 00000-0 00000-0 0 9992 2 12351 10.7248 309.8296 0081384 214.3029 153.0533 1.00412996103543 RADUGA 9 [-] 1 12618U 81069A 21100.83446050 -.00000372 00000-0 00000-0 0 9999 2 12618 10.9140 312.5022 0004756 96.5180 199.2433 1.00231644 28351 RADUGA 10 [-] 1 12897U 81102A 21100.60109169 -.00000137 00000-0 00000-0 0 9997 2 12897 10.9905 313.4053 0004601 142.1421 36.9248 1.00248494 98357 RADUGA 11 [-] 1 13669U 82113A 21100.67101490 -.00000047 00000-0 00000-0 0 9994 2 13669 12.8833 326.1939 0035858 243.2575 299.3247 0.97707435103037 RADUGA 12 [-] 1 13974U 83028A 21100.89708197 -.00000194 00000-0 00000-0 0 9993 2 13974 12.0123 322.6417 0004978 66.0957 216.9249 1.00285347150392 RADUGA 13 [-] 1 14307U 83088A 21101.10628052 -.00000076 00000-0 00000+0 0 9994 2 14307 13.1011 327.7774 0018784 31.7662 277.7388 0.98173636100358 RADUGA 14 [-] 1 14725U 84016A 21100.67973858 -.00000059 00000-0 00000-0 0 9990 2 14725 12.1637 326.1699 0005720 90.7083 96.7604 1.00248328 99118 RADUGA 15 [-] 1 15057U 84063A 21100.83766633 .00000087 00000-0 00000+0 0 9999 2 15057 12.2688 327.1521 0005190 111.8442 81.3397 1.00247702122104 RADUGA 16 [-] 1 15946U 85070A 21100.46240611 -.00000310 00000-0 00000-0 0 9998 2 15946 12.6555 331.6351 0002804 66.0440 275.2271 1.00207761103236 RADUGA 17 [-] 1 16250U 85107A 21100.97257019 -.00000316 00000-0 00000+0 0 9999 2 16250 12.7570 332.9515 0011160 158.7248 197.8887 1.00178767132832 RADUGA 18 [-] 1 16497U 86007A 21101.15286552 -.00000251 00000-0 00000+0 0 9995 2 16497 13.5274 335.5501 0073358 150.6993 102.5880 0.98814725127202 RADUGA 19 [-] 1 17046U 86082A 21100.47169212 -.00000081 00000-0 00000-0 0 9998 2 17046 13.8840 339.3463 0012027 118.0155 122.8174 0.98460366124260 RADUGA 20 [-] 1 17611U 87028A 21100.74185043 -.00000086 00000-0 00000-0 0 9992 2 17611 15.8450 342.9031 0029738 118.5681 67.8833 0.95961147120147 RADUGA 21 [-] 1 18631U 87100A 21100.07227892 -.00000313 00000-0 00000-0 0 9994 2 18631 13.9386 340.4827 0004331 70.4300 118.4672 1.00239933122097 RADUGA 22 [-] 1 19596U 88095A 21100.22407850 .00000115 00000-0 00000-0 0 9999 2 19596 13.8381 344.5762 0006027 89.7949 233.9946 1.00339944102651 RADUGA 23 [-] 1 19928U 89030A 21100.60850674 -.00000380 00000-0 00000+0 0 9990 2 19928 13.9426 346.3291 0019261 141.2108 44.7437 1.00233165115850 RADUGA-1 1 [-] 1 20083U 89048A 21101.16923611 -.00000170 00000-0 00000+0 0 9994 2 20083 14.6411 349.2716 0022515 94.5346 186.6222 0.98710245112580 RADUGA 24 [-] 1 20367U 89098A 21100.79442866 -.00000018 00000-0 00000-0 0 9992 2 20367 14.4726 348.6956 0002864 44.5696 154.4869 1.00333056113989 RADUGA 25 [-] 1 20499U 90016A 21101.12411480 -.00000309 00000-0 00000+0 0 9998 2 20499 14.2292 349.2664 0004682 86.3556 105.2733 1.00352471113967 RADUGA 26 [-] 1 21016U 90112A 21100.67677247 -.00000304 00000-0 00000-0 0 9991 2 21016 14.4658 352.4849 0008937 58.1084 128.7008 1.00262759111278 RADUGA-1 2 [-] 1 21038U 90116A 21100.68938354 -.00000271 00000-0 00000-0 0 9992 2 21038 14.5043 352.5709 0009462 69.4752 116.1784 1.00317870 28351 RADUGA 27 [-] 1 21132U 91014A 21100.83844083 -.00000368 00000-0 00000-0 0 9994 2 21132 15.0214 352.3036 0006276 47.0436 229.8188 1.00255130110323 RADUGA 28 [-] 1 21821U 91087A 21101.17813264 .00000115 00000-0 00000+0 0 9992 2 21821 14.7071 355.8529 0007638 79.9453 224.9839 1.00316033107365 RADUGA 29 [-] 1 22557U 93013A 21100.89640543 -.00000124 00000-0 00000+0 0 9997 2 22557 14.8072 0.0022 0007553 74.5931 165.6848 1.00160456102709 RADUGA 30 [-] 1 22836U 93062A 21100.74324622 -.00000070 00000-0 00000-0 0 9993 2 22836 14.8069 1.9318 0004615 358.3122 176.1566 1.00278656 27010 RADUGA-1 3 [-] 1 22981U 94008A 21100.16068786 .00000076 00000-0 00000-0 0 9992 2 22981 14.8571 3.1062 0005581 45.3786 258.0714 1.00254740 99484 RADUGA 31 [-] 1 23010U 94012A 21100.89877652 -.00000347 00000-0 00000+0 0 9992 2 23010 14.8246 3.0776 0006779 53.0014 210.9569 1.00253172 99368 RADUGA 32 [-] 1 23448U 94087A 21100.74333344 -.00000075 00000-0 00000-0 0 9997 2 23448 14.7442 5.7497 0001468 210.7420 320.5724 1.00276376113899 RADUGA-1 4 [-] 1 25642U 99010A 21100.83108086 -.00000378 00000-0 00000+0 0 9994 2 25642 15.0275 17.5182 0003513 326.4911 268.1670 1.00276961 80980 RADUGA-1 5 [-] 1 26477U 00049A 21100.90159302 -.00000329 00000-0 00000+0 0 9996 2 26477 12.8721 21.6851 0007524 23.9723 218.1609 1.00311134 75504 RADUGA-1 6 [-] 1 26936U 01045A 21100.85953166 -.00000051 00000-0 00000-0 0 9990 2 26936 12.8834 27.7891 0012285 148.6071 57.6767 0.97743325 70097 RADUGA-1 7 [-] 1 28194U 04010A 21100.01566285 .00000100 00000-0 00000-0 0 9997 2 28194 11.4684 34.7989 0002452 330.7234 219.5503 1.00304940 62414 RADUGA-1M 1 [-] 1 32373U 07058A 21100.89554090 -.00000247 00000-0 00000+0 0 9995 2 32373 5.9524 66.8453 0005874 329.6015 239.4130 0.99396342 49490 RADUGA-1 8 [-] 1 34264U 09010A 21100.91892267 -.00000077 00000-0 00000+0 0 9991 2 34264 8.3881 57.3409 0015781 345.5041 210.0659 0.99815058 44276 RADUGA-1M 2 [+] 1 36358U 10002A 21100.53095406 -.00000196 00000-0 00000+0 0 9990 2 36358 0.0616 251.6107 0003409 174.2113 49.2859 1.00273202 41028 RADUGA-1M 3 [+] 1 39375U 13062A 21100.87983844 .00000146 00000-0 00000-0 0 9995 2 39375 1.1607 94.6265 0001725 297.2233 159.1696 1.00273372 27145